STARLINK-11466, 62220

Orbit data source: Space-Track

STARLINK-11466, 62220 is a payload satellite owned by SpaceX/Seattle (US) in LEO that was launched on Thu, 05 Dec 2024 UTC via an FALCON 9 launch vehicle from the Air Force Western Test Range (AFWTR). Payload-class satellites include a variety of spacecraft equipped with specific instruments for various scientific and technological missions. These include communications satellites like Starlink; space stations such as the ISS; scientific satellites like the Hubble; Earth observation satellites from companies like Planet Labs, Umbra, and HawkEye 360; GPS; miniature CubeSats for education and research; and military/defense satellites.

Loading next visibility...
Identifier
62220, 2024-231C
Orbit
LEO
Country
Flag of USUS
Related business
Manufacturer
SpaceX/Seattle
Mission
Operational Commercial Communications
Bus & Motor
STARLINK V2MD, Unknown motor
Mass
960 kg wet, ~910 kg dry
Launch date (UTC)
2024-12-05 (1 year ago)
Launch vehicle
FALCON 9
Launch site
Air Force Western Test Range (AFWTR)
Object type
Payload
Rocket body
Debris
Shape & HBR
Box + 2 Pan, 18.1 m
Radar Cross Section
36.964 m², Large (>1 m²)

Expand to show TLE details & history
Last TLE update: 9 hours ago

TLE from 9 hours ago
0 STARLINK-11466
1 62220U 24231C   26033.63723881  .00261381  00000-0  20861-2 0  9996
2 62220  53.1569 274.2435 0001600 117.2255 242.8926 15.69813347 67902
Epoch: 2026-02-02T15:17Z
TLE epoch observation values (Epoch: 2026-02-02T15:17:37.433Z)
Latitude
-0.00001°
Longitude
-87.99215°
Altitude
360.837 km
Speed
7.694 km/s
True Right ascension
18h 16m 58s
True Declination
0° 00' 00"
Sunlit
Object was in daylight at epoch
Visualization orbit readout
Latitude
Unknown
Longitude
Unknown
Altitude
Unknown
Speed
Unknown
Apparent Right ascension
Unknown
Apparent Declination
Unknown
Sunlit
N/A
Visualization observer readout
Local Sidereal Time
02:12:00
Azimuth
Unknown
Elevation
Unknown
Doppler factor
Unknown
Orbital elements
Apogee altitude
360.77 km
Perigee altitude
358.614 km
Semi-major axis
6,737.829 km
Eccentricity
0.00016
Inclination
53.1569°
RAAN
274.2435°
Arg. of periapsis
117.2255°
True anomaly
242.87628°
Mean anomaly
242.8926°
Eccentric anomaly
242.88444°
Mean motion
3.92431 °/min
Orbital period
91.74 mins
BSTAR
0.0020861
Loading maneuver chart data...
Computing Atmospheric mass density...
Loading historical data...
Loading historical data...
Loading historical data...
Loading historical data...
Loading historical data...
Loading historical data...
Loading historical data...

Documentation

Showing up to 5 results
|